Anchorage Merrill, AK

12:28 PM AKDT on March 25, 2017 (GMT -0800)
Merrill

Weather History for PAMR - August, 2014

Change the Weather History Date:

Tuesday, August 19, 2014

  Actual Average Record
Temperature  
Mean Temperature 60 °F -  
Max Temperature 70 °F 63 °F 71 °F (2004)
Min Temperature 52 °F 49 °F 39 °F (1998)
Degree Days  
Heating Degree Days 4    
Growing Degree Days 10 (Base 50)    
Moisture  
Dew Point 50 °F    
Average Humidity 68    
Maximum Humidity 86    
Minimum Humidity 54    
Precipitation  
Precipitation 0.00 in - - ()
Sea Level Pressure  
Sea Level Pressure 29.98 in    
Wind  
Wind Speed 2 mph (WNW)    
Max Wind Speed 7 mph    
Max Gust Speed -    
Visibility 10 miles    
Events      
Averages and records for this station are not official NWS values.
T = Trace of Precipitation, MM = Missing Value Source: NWS Daily Summary

Daily Weather History Graph

Daily Weather History Graph

Search for Another Location

Airport or City:

Trip Planner

Search our weather history database for the weather conditions in past years. The results will help you decide how hot, cold, wet, or windy it might be!

Date:

Astronomy

Aug. 19, 2014 Rise Set
Actual Time 6:18 AM AKDT 9:45 PM AKDT
Civil Twilight 5:26 AM AKDT 10:37 PM AKDT
Nautical Twilight 4:09 AM AKDT 11:52 PM AKDT
Astronomical Twilight 2:35 AM AKDT 1:30 AM AKDT
Moon 12:46 AM AKDT (8/19) 6:23 PM AKDT (8/19)
Length of Visible Light 17h 11m
Length of Day
15h 26m
Waning Crescent, 28% of the Moon is Illuminated
Aug 19
Waning Crescent
Aug 25
New
Sep 2
First Quarter
Sep 8
Full
Sep 15
Last Quarter

Hourly Weather History & Observations

Time (AKDT) Temp. Dew Point Humidity Pressure Visibility Wind Dir Wind Speed Gust Speed Precip Events Conditions
1:53 AM 57.0 °F 51.1 °F 81% 29.99 in 10.0 mi Calm Calm - N/A   Mostly Cloudy
2:53 AM 55.0 °F 48.9 °F 80% 29.99 in 10.0 mi Calm Calm - N/A   Scattered Clouds
4:53 AM 53.1 °F 46.9 °F 80% 30.00 in 10.0 mi Calm Calm - N/A   Scattered Clouds
5:53 AM 53.1 °F 48.0 °F 83% 30.01 in 10.0 mi Calm Calm - N/A   Scattered Clouds
6:53 AM 52.0 °F 48.0 °F 86% 30.00 in 10.0 mi Calm Calm - N/A   Scattered Clouds
7:53 AM 54.0 °F 45.0 °F 72% 30.00 in 10.0 mi Calm Calm - N/A   Clear
8:53 AM 57.0 °F 48.0 °F 72% 30.00 in 10.0 mi Calm Calm - N/A   Clear
9:53 AM 61.0 °F 50.0 °F 67% 30.00 in 10.0 mi Calm Calm - N/A   Clear
10:53 AM 61.0 °F 50.0 °F 67% 30.00 in 10.0 mi NW 5.8 mph - N/A   Clear
11:53 AM 64.9 °F 48.9 °F 56% 30.00 in 10.0 mi North 5.8 mph - N/A   Clear
1:53 PM 66.9 °F 51.1 °F 57% 29.99 in 10.0 mi WNW 5.8 mph - N/A   Clear
2:53 PM 68.0 °F 53.1 °F 59% 29.97 in 10.0 mi WNW 5.8 mph - N/A   Clear
3:53 PM 69.1 °F 52.0 °F 54% 29.96 in 10.0 mi Variable 5.8 mph - N/A   Partly Cloudy
4:53 PM 69.1 °F 52.0 °F 54% 29.96 in 10.0 mi WNW 6.9 mph - N/A   Clear
5:53 PM 69.1 °F 53.1 °F 57% 29.95 in 10.0 mi WNW 6.9 mph - N/A   Clear
6:53 PM 69.1 °F 53.1 °F 57% 29.94 in 10.0 mi WNW 6.9 mph - N/A   Scattered Clouds
7:53 PM 66.0 °F 52.0 °F 60% 29.95 in 10.0 mi West 3.5 mph - N/A   Scattered Clouds
8:53 PM 66.0 °F 51.1 °F 59% 29.95 in 10.0 mi Calm Calm - N/A   Mostly Cloudy
9:53 PM 62.1 °F 52.0 °F 70% 29.96 in 10.0 mi Calm Calm - N/A   Scattered Clouds
10:53 PM 61.0 °F 52.0 °F 72% 29.98 in 10.0 mi Calm Calm - N/A   Partly Cloudy
11:53 PM 60.1 °F 52.0 °F 75% 29.99 in 10.0 mi Calm Calm - N/A   Mostly Cloudy